owner,sensor,date,latitude,longitude,sea_surface_height_above_sea_level,qcFlag 
TCOON,ioos:station:TCOON:524:1,2016-07-01T00:18:00Z,29.8672,-93.9310,1.566,1111122 
TCOON,ioos:station:TCOON:524:1,2016-07-01T01:12:00Z,29.8672,-93.9310,1.539,1111122 
TCOON,ioos:station:TCOON:524:1,2016-07-01T02:18:00Z,29.8672,-93.9310,1.531,1111122 
TCOON,ioos:station:TCOON:524:1,2016-07-01T03:18:00Z,29.8672,-93.9310,1.566,1111122 
TCOON,ioos:station:TCOON:524:1,2016-07-01T04:18:00Z,29.8672,-93.9310,1.607,1111122 
TCOON,ioos:station:TCOON:524:1,2016-07-01T05:18:00Z,29.8672,-93.9310,1.682,1111122 
TCOON,ioos:station:TCOON:524:1,2016-07-01T06:18:00Z,29.8672,-93.9310,1.726,1111122 
TCOON,ioos:station:TCOON:524:1,2016-07-01T07:18:00Z,29.8672,-93.9310,1.848,1111122 
TCOON,ioos:station:TCOON:524:1,2016-07-01T08:18:00Z,29.8672,-93.9310,1.837,1111122 
TCOON,ioos:station:TCOON:524:1,2016-07-01T09:18:00Z,29.8672,-93.9310,1.842,1111122 
TCOON,ioos:station:TCOON:524:1,2016-07-01T10:18:00Z,29.8672,-93.9310,1.862,1111122 
TCOON,ioos:station:TCOON:524:1,2016-07-01T11:18:00Z,29.8672,-93.9310,1.846,1111122 
TCOON,ioos:station:TCOON:524:1,2016-07-01T12:18:00Z,29.8672,-93.9310,1.851,1111122 
TCOON,ioos:station:TCOON:524:1,2016-07-01T13:18:00Z,29.8672,-93.9310,1.837,1111122 
TCOON,ioos:station:TCOON:524:1,2016-07-01T14:12:00Z,29.8672,-93.9310,1.808,1111122 
TCOON,ioos:station:TCOON:524:1,2016-07-01T15:18:00Z,29.8672,-93.9310,1.808,1111122 
TCOON,ioos:station:TCOON:524:1,2016-07-01T16:18:00Z,29.8672,-93.9310,1.799,1111122 
TCOON,ioos:station:TCOON:524:1,2016-07-01T17:18:00Z,29.8672,-93.9310,1.831,1111122 
TCOON,ioos:station:TCOON:524:1,2016-07-01T18:18:00Z,29.8672,-93.9310,1.823,1111122 
TCOON,ioos:station:TCOON:524:1,2016-07-01T19:18:00Z,29.8672,-93.9310,1.736,1111122 
TCOON,ioos:station:TCOON:524:1,2016-07-01T20:18:00Z,29.8672,-93.9310,1.797,1111122 
TCOON,ioos:station:TCOON:524:1,2016-07-01T21:18:00Z,29.8672,-93.9310,1.743,1111122 
TCOON,ioos:station:TCOON:524:1,2016-07-01T22:18:00Z,29.8672,-93.9310,1.654,1111122 
TCOON,ioos:station:TCOON:524:1,2016-07-02T00:18:00Z,29.8672,-93.9310,1.543,1111122 
TCOON,ioos:station:TCOON:524:1,2016-07-02T01:18:00Z,29.8672,-93.9310,1.5,1111122 
TCOON,ioos:station:TCOON:524:1,2016-07-02T02:18:00Z,29.8672,-93.9310,1.48,1111122 
TCOON,ioos:station:TCOON:524:1,2016-07-02T03:18:00Z,29.8672,-93.9310,1.495,1111122 
TCOON,ioos:station:TCOON:524:1,2016-07-02T04:18:00Z,29.8672,-93.9310,1.5,1111122 
TCOON,ioos:station:TCOON:524:1,2016-07-02T05:18:00Z,29.8672,-93.9310,1.536,1111122 
TCOON,ioos:station:TCOON:524:1,2016-07-02T06:18:00Z,29.8672,-93.9310,1.625,1111122 
TCOON,ioos:station:TCOON:524:1,2016-07-02T07:18:00Z,29.8672,-93.9310,1.704,1111122 
TCOON,ioos:station:TCOON:524:1,2016-07-02T08:18:00Z,29.8672,-93.9310,1.791,1111122 
TCOON,ioos:station:TCOON:524:1,2016-07-02T09:12:00Z,29.8672,-93.9310,1.802,1111122 
TCOON,ioos:station:TCOON:524:1,2016-07-02T10:18:00Z,29.8672,-93.9310,1.807,1111122 
TCOON,ioos:station:TCOON:524:1,2016-07-02T11:18:00Z,29.8672,-93.9310,1.818,1111122 
TCOON,ioos:station:TCOON:524:1,2016-07-02T12:18:00Z,29.8672,-93.9310,1.84,1111122 
TCOON,ioos:station:TCOON:524:1,2016-07-02T13:18:00Z,29.8672,-93.9310,1.832,1111122 
TCOON,ioos:station:TCOON:524:1,2016-07-02T14:18:00Z,29.8672,-93.9310,1.816,1111122 
TCOON,ioos:station:TCOON:524:1,2016-07-02T15:18:00Z,29.8672,-93.9310,1.8,1111122 
TCOON,ioos:station:TCOON:524:1,2016-07-02T16:18:00Z,29.8672,-93.9310,1.805,1111122 
TCOON,ioos:station:TCOON:524:1,2016-07-02T17:18:00Z,29.8672,-93.9310,1.792,1111122 
TCOON,ioos:station:TCOON:524:1,2016-07-02T18:18:00Z,29.8672,-93.9310,1.82,1111122 
TCOON,ioos:station:TCOON:524:1,2016-07-02T19:18:00Z,29.8672,-93.9310,1.82,1111122 
TCOON,ioos:station:TCOON:524:1,2016-07-02T21:18:00Z,29.8672,-93.9310,1.789,1111122 
TCOON,ioos:station:TCOON:524:1,2016-07-02T22:18:00Z,29.8672,-93.9310,1.741,1111122 
TCOON,ioos:station:TCOON:524:1,2016-07-02T23:18:00Z,29.8672,-93.9310,1.72,1111122 
TCOON,ioos:station:TCOON:524:1,2016-07-03T00:18:00Z,29.8672,-93.9310,1.589,1111122 
TCOON,ioos:station:TCOON:524:1,2016-07-03T01:18:00Z,29.8672,-93.9310,1.488,1111122 
TCOON,ioos:station:TCOON:524:1,2016-07-03T02:18:00Z,29.8672,-93.9310,1.469,1111122 
TCOON,ioos:station:TCOON:524:1,2016-07-03T03:18:00Z,29.8672,-93.9310,1.457,1111122 
TCOON,ioos:station:TCOON:524:1,2016-07-03T04:18:00Z,29.8672,-93.9310,1.459,1111122 
TCOON,ioos:station:TCOON:524:1,2016-07-03T05:18:00Z,29.8672,-93.9310,1.523,1111122 
TCOON,ioos:station:TCOON:524:1,2016-07-03T06:18:00Z,29.8672,-93.9310,1.585,1111122 
TCOON,ioos:station:TCOON:524:1,2016-07-03T07:18:00Z,29.8672,-93.9310,1.651,1111122 
TCOON,ioos:station:TCOON:524:1,2016-07-03T08:18:00Z,29.8672,-93.9310,1.741,1111122 
TCOON,ioos:station:TCOON:524:1,2016-07-03T09:18:00Z,29.8672,-93.9310,1.816,1111122 
TCOON,ioos:station:TCOON:524:1,2016-07-03T10:18:00Z,29.8672,-93.9310,1.816,1111122 
TCOON,ioos:station:TCOON:524:1,2016-07-03T11:18:00Z,29.8672,-93.9310,1.844,1111122 
TCOON,ioos:station:TCOON:524:1,2016-07-03T12:18:00Z,29.8672,-93.9310,1.86,1111122 
TCOON,ioos:station:TCOON:524:1,2016-07-03T13:18:00Z,29.8672,-93.9310,1.865,1111122 
TCOON,ioos:station:TCOON:524:1,2016-07-03T14:18:00Z,29.8672,-93.9310,1.88,1111122 
TCOON,ioos:station:TCOON:524:1,2016-07-03T15:18:00Z,29.8672,-93.9310,1.844,1111122 
TCOON,ioos:station:TCOON:524:1,2016-07-03T16:18:00Z,29.8672,-93.9310,1.863,1111122 
TCOON,ioos:station:TCOON:524:1,2016-07-03T17:18:00Z,29.8672,-93.9310,1.853,1111122 
TCOON,ioos:station:TCOON:524:1,2016-07-03T18:18:00Z,29.8672,-93.9310,1.857,1111122 
TCOON,ioos:station:TCOON:524:1,2016-07-03T19:18:00Z,29.8672,-93.9310,1.873,1111122 
TCOON,ioos:station:TCOON:524:1,2016-07-03T20:18:00Z,29.8672,-93.9310,1.846,1111122 
TCOON,ioos:station:TCOON:524:1,2016-07-03T21:18:00Z,29.8672,-93.9310,1.851,1111122 
TCOON,ioos:station:TCOON:524:1,2016-07-03T22:18:00Z,29.8672,-93.9310,1.792,1111122 
TCOON,ioos:station:TCOON:524:1,2016-07-03T23:18:00Z,29.8672,-93.9310,1.754,1111122 
TCOON,ioos:station:TCOON:524:1,2016-07-04T00:18:00Z,29.8672,-93.9310,1.656,1111122 
TCOON,ioos:station:TCOON:524:1,2016-07-04T01:18:00Z,29.8672,-93.9310,1.544,1111122 
TCOON,ioos:station:TCOON:524:1,2016-07-04T02:18:00Z,29.8672,-93.9310,1.532,1111122 
TCOON,ioos:station:TCOON:524:1,2016-07-04T03:18:00Z,29.8672,-93.9310,1.495,1111122 
TCOON,ioos:station:TCOON:524:1,2016-07-04T04:18:00Z,29.8672,-93.9310,1.413,1111122 
TCOON,ioos:station:TCOON:524:1,2016-07-04T05:18:00Z,29.8672,-93.9310,1.498,1111122 
TCOON,ioos:station:TCOON:524:1,2016-07-04T06:18:00Z,29.8672,-93.9310,1.535,1111122 
TCOON,ioos:station:TCOON:524:1,2016-07-04T07:18:00Z,29.8672,-93.9310,1.602,1111122 
TCOON,ioos:station:TCOON:524:1,2016-07-04T08:18:00Z,29.8672,-93.9310,1.778,1111122 
TCOON,ioos:station:TCOON:524:1,2016-07-04T09:18:00Z,29.8672,-93.9310,1.839,1111122 
TCOON,ioos:station:TCOON:524:1,2016-07-04T10:18:00Z,29.8672,-93.9310,1.853,1111122 
TCOON,ioos:station:TCOON:524:1,2016-07-04T11:18:00Z,29.8672,-93.9310,1.881,1111122 
TCOON,ioos:station:TCOON:524:1,2016-07-04T12:18:00Z,29.8672,-93.9310,1.89,1111122 
TCOON,ioos:station:TCOON:524:1,2016-07-04T13:18:00Z,29.8672,-93.9310,1.905,1111122 
TCOON,ioos:station:TCOON:524:1,2016-07-04T14:18:00Z,29.8672,-93.9310,1.894,1111122 
TCOON,ioos:station:TCOON:524:1,2016-07-04T15:18:00Z,29.8672,-93.9310,1.89,1111122 
TCOON,ioos:station:TCOON:524:1,2016-07-04T16:18:00Z,29.8672,-93.9310,1.872,1111122 
TCOON,ioos:station:TCOON:524:1,2016-07-04T17:18:00Z,29.8672,-93.9310,1.851,1111122 
TCOON,ioos:station:TCOON:524:1,2016-07-04T18:18:00Z,29.8672,-93.9310,1.849,1111122 
TCOON,ioos:station:TCOON:524:1,2016-07-04T19:18:00Z,29.8672,-93.9310,1.855,1111122 
TCOON,ioos:station:TCOON:524:1,2016-07-04T20:18:00Z,29.8672,-93.9310,1.831,1111122 
TCOON,ioos:station:TCOON:524:1,2016-07-04T21:18:00Z,29.8672,-93.9310,1.829,1111122 
TCOON,ioos:station:TCOON:524:1,2016-07-04T22:18:00Z,29.8672,-93.9310,1.823,1111122 
TCOON,ioos:station:TCOON:524:1,2016-07-04T23:18:00Z,29.8672,-93.9310,1.764,1111122 
TCOON,ioos:station:TCOON:524:1,2016-07-05T00:18:00Z,29.8672,-93.9310,1.705,1111122 
TCOON,ioos:station:TCOON:524:1,2016-07-05T01:18:00Z,29.8672,-93.9310,1.626,1111122 
TCOON,ioos:station:TCOON:524:1,2016-07-05T02:18:00Z,29.8672,-93.9310,1.569,1111122 
TCOON,ioos:station:TCOON:524:1,2016-07-05T03:18:00Z,29.8672,-93.9310,1.487,1111122 
TCOON,ioos:station:TCOON:524:1,2016-07-05T04:18:00Z,29.8672,-93.9310,1.441,1111122 
TCOON,ioos:station:TCOON:524:1,2016-07-05T05:18:00Z,29.8672,-93.9310,1.438,1111122 
TCOON,ioos:station:TCOON:524:1,2016-07-05T06:18:00Z,29.8672,-93.9310,1.471,1111122 
TCOON,ioos:station:TCOON:524:1,2016-07-05T07:18:00Z,29.8672,-93.9310,1.53,1111122 
TCOON,ioos:station:TCOON:524:1,2016-07-05T08:18:00Z,29.8672,-93.9310,1.615,1111122 
TCOON,ioos:station:TCOON:524:1,2016-07-05T09:18:00Z,29.8672,-93.9310,1.743,1111122 
TCOON,ioos:station:TCOON:524:1,2016-07-05T10:18:00Z,29.8672,-93.9310,1.816,1111122 
TCOON,ioos:station:TCOON:524:1,2016-07-05T11:18:00Z,29.8672,-93.9310,1.873,1111122 
TCOON,ioos:station:TCOON:524:1,2016-07-05T12:18:00Z,29.8672,-93.9310,1.884,1111122 
TCOON,ioos:station:TCOON:524:1,2016-07-05T13:18:00Z,29.8672,-93.9310,1.853,1111122 
TCOON,ioos:station:TCOON:524:1,2016-07-05T14:18:00Z,29.8672,-93.9310,1.879,1111122 
TCOON,ioos:station:TCOON:524:1,2016-07-05T15:18:00Z,29.8672,-93.9310,1.877,1111122 
TCOON,ioos:station:TCOON:524:1,2016-07-05T16:18:00Z,29.8672,-93.9310,1.794,1111122 
TCOON,ioos:station:TCOON:524:1,2016-07-05T17:18:00Z,29.8672,-93.9310,1.813,1111122 
TCOON,ioos:station:TCOON:524:1,2016-07-05T18:18:00Z,29.8672,-93.9310,1.784,1111122 
TCOON,ioos:station:TCOON:524:1,2016-07-05T21:18:00Z,29.8672,-93.9310,1.769,1111122 
TCOON,ioos:station:TCOON:524:1,2016-07-05T22:18:00Z,29.8672,-93.9310,1.776,1111122 
TCOON,ioos:station:TCOON:524:1,2016-07-05T23:18:00Z,29.8672,-93.9310,1.762,1111122 
TCOON,ioos:station:TCOON:524:1,2016-07-06T00:18:00Z,29.8672,-93.9310,1.717,1111122 
TCOON,ioos:station:TCOON:524:1,2016-07-06T01:18:00Z,29.8672,-93.9310,1.671,1111122 
TCOON,ioos:station:TCOON:524:1,2016-07-06T02:18:00Z,29.8672,-93.9310,1.599,1111122 
TCOON,ioos:station:TCOON:524:1,2016-07-06T03:18:00Z,29.8672,-93.9310,1.531,1111122 
TCOON,ioos:station:TCOON:524:1,2016-07-06T04:18:00Z,29.8672,-93.9310,1.449,1111122 
TCOON,ioos:station:TCOON:524:1,2016-07-06T05:18:00Z,29.8672,-93.9310,1.446,1111122 
TCOON,ioos:station:TCOON:524:1,2016-07-06T06:18:00Z,29.8672,-93.9310,1.383,1111122 
TCOON,ioos:station:TCOON:524:1,2016-07-06T07:18:00Z,29.8672,-93.9310,1.465,1111122 
TCOON,ioos:station:TCOON:524:1,2016-07-06T08:18:00Z,29.8672,-93.9310,1.518,1111122 
TCOON,ioos:station:TCOON:524:1,2016-07-06T09:18:00Z,29.8672,-93.9310,1.64,1111122 
TCOON,ioos:station:TCOON:524:1,2016-07-06T10:18:00Z,29.8672,-93.9310,1.726,1111122 
TCOON,ioos:station:TCOON:524:1,2016-07-06T11:18:00Z,29.8672,-93.9310,1.786,1111122 
TCOON,ioos:station:TCOON:524:1,2016-07-06T12:18:00Z,29.8672,-93.9310,1.807,1111122 
TCOON,ioos:station:TCOON:524:1,2016-07-06T13:18:00Z,29.8672,-93.9310,1.824,1111122 
TCOON,ioos:station:TCOON:524:1,2016-07-06T14:18:00Z,29.8672,-93.9310,1.81,1111122 
TCOON,ioos:station:TCOON:524:1,2016-07-06T15:18:00Z,29.8672,-93.9310,1.801,1111122 
TCOON,ioos:station:TCOON:524:1,2016-07-06T16:18:00Z,29.8672,-93.9310,1.797,1111122 
TCOON,ioos:station:TCOON:524:1,2016-07-06T17:18:00Z,29.8672,-93.9310,1.764,1111122 
TCOON,ioos:station:TCOON:524:1,2016-07-06T18:18:00Z,29.8672,-93.9310,1.737,1111122 
TCOON,ioos:station:TCOON:524:1,2016-07-06T19:18:00Z,29.8672,-93.9310,1.732,1111122 
TCOON,ioos:station:TCOON:524:1,2016-07-06T20:18:00Z,29.8672,-93.9310,1.719,1111122 
TCOON,ioos:station:TCOON:524:1,2016-07-06T21:18:00Z,29.8672,-93.9310,1.739,1111122 
TCOON,ioos:station:TCOON:524:1,2016-07-06T22:18:00Z,29.8672,-93.9310,1.764,1111122 
TCOON,ioos:station:TCOON:524:1,2016-07-06T23:18:00Z,29.8672,-93.9310,1.758,1111122 
TCOON,ioos:station:TCOON:524:1,2016-07-07T00:18:00Z,29.8672,-93.9310,1.739,1111122 
TCOON,ioos:station:TCOON:524:1,2016-07-07T01:18:00Z,29.8672,-93.9310,1.736,1111122 
TCOON,ioos:station:TCOON:524:1,2016-07-07T02:18:00Z,29.8672,-93.9310,1.649,1111122 
TCOON,ioos:station:TCOON:524:1,2016-07-07T03:18:00Z,29.8672,-93.9310,1.578,1111122 
TCOON,ioos:station:TCOON:524:1,2016-07-07T04:18:00Z,29.8672,-93.9310,1.523,1111122 
TCOON,ioos:station:TCOON:524:1,2016-07-07T05:18:00Z,29.8672,-93.9310,1.466,1111122 
TCOON,ioos:station:TCOON:524:1,2016-07-07T06:18:00Z,29.8672,-93.9310,1.488,1111122 
TCOON,ioos:station:TCOON:524:1,2016-07-07T07:18:00Z,29.8672,-93.9310,1.482,1111122 
TCOON,ioos:station:TCOON:524:1,2016-07-07T08:18:00Z,29.8672,-93.9310,1.53,1111122 
TCOON,ioos:station:TCOON:524:1,2016-07-07T09:18:00Z,29.8672,-93.9310,1.558,1111122 
TCOON,ioos:station:TCOON:524:1,2016-07-07T10:18:00Z,29.8672,-93.9310,1.645,1111122 
TCOON,ioos:station:TCOON:524:1,2016-07-07T11:18:00Z,29.8672,-93.9310,1.749,1111122 
TCOON,ioos:station:TCOON:524:1,2016-07-07T12:18:00Z,29.8672,-93.9310,1.778,1111122 
TCOON,ioos:station:TCOON:524:1,2016-07-07T13:18:00Z,29.8672,-93.9310,1.789,1111122 
TCOON,ioos:station:TCOON:524:1,2016-07-07T14:18:00Z,29.8672,-93.9310,1.801,1111122 
TCOON,ioos:station:TCOON:524:1,2016-07-07T15:18:00Z,29.8672,-93.9310,1.816,1111122 
TCOON,ioos:station:TCOON:524:1,2016-07-07T16:18:00Z,29.8672,-93.9310,1.824,1111122 
TCOON,ioos:station:TCOON:524:1,2016-07-07T17:18:00Z,29.8672,-93.9310,1.831,1111122 
TCOON,ioos:station:TCOON:524:1,2016-07-07T18:18:00Z,29.8672,-93.9310,1.812,1111122 
TCOON,ioos:station:TCOON:524:1,2016-07-07T19:18:00Z,29.8672,-93.9310,1.771,1111122 
TCOON,ioos:station:TCOON:524:1,2016-07-07T20:18:00Z,29.8672,-93.9310,1.772,1111122 
TCOON,ioos:station:TCOON:524:1,2016-07-07T21:18:00Z,29.8672,-93.9310,1.766,1111122 
TCOON,ioos:station:TCOON:524:1,2016-07-07T22:18:00Z,29.8672,-93.9310,1.76,1111122 
TCOON,ioos:station:TCOON:524:1,2016-07-07T23:18:00Z,29.8672,-93.9310,1.775,1111122 
TCOON,ioos:station:TCOON:524:1,2016-07-08T00:18:00Z,29.8672,-93.9310,1.772,1111122 
TCOON,ioos:station:TCOON:524:1,2016-07-08T01:18:00Z,29.8672,-93.9310,1.759,1111122 
TCOON,ioos:station:TCOON:524:1,2016-07-08T02:18:00Z,29.8672,-93.9310,1.716,1111122 
TCOON,ioos:station:TCOON:524:1,2016-07-08T03:18:00Z,29.8672,-93.9310,1.666,1111122 
TCOON,ioos:station:TCOON:524:1,2016-07-08T04:24:00Z,29.8672,-93.9310,1.619,1111122 
TCOON,ioos:station:TCOON:524:1,2016-07-08T05:18:00Z,29.8672,-93.9310,1.543,1111122 
TCOON,ioos:station:TCOON:524:1,2016-07-08T06:18:00Z,29.8672,-93.9310,1.545,1111122 
TCOON,ioos:station:TCOON:524:1,2016-07-08T07:18:00Z,29.8672,-93.9310,1.542,1111122 
TCOON,ioos:station:TCOON:524:1,2016-07-08T08:18:00Z,29.8672,-93.9310,1.525,1111122 
TCOON,ioos:station:TCOON:524:1,2016-07-08T09:18:00Z,29.8672,-93.9310,1.548,1111122 
TCOON,ioos:station:TCOON:524:1,2016-07-08T10:18:00Z,29.8672,-93.9310,1.58,1111122 
TCOON,ioos:station:TCOON:524:1,2016-07-08T11:18:00Z,29.8672,-93.9310,1.651,1111122 
TCOON,ioos:station:TCOON:524:1,2016-07-08T12:18:00Z,29.8672,-93.9310,1.717,1111122 
TCOON,ioos:station:TCOON:524:1,2016-07-08T13:18:00Z,29.8672,-93.9310,1.748,1111122 
TCOON,ioos:station:TCOON:524:1,2016-07-08T14:18:00Z,29.8672,-93.9310,1.691,1111122 
TCOON,ioos:station:TCOON:524:1,2016-07-08T15:18:00Z,29.8672,-93.9310,1.783,1111122 
TCOON,ioos:station:TCOON:524:1,2016-07-08T16:18:00Z,29.8672,-93.9310,1.773,1111122 
TCOON,ioos:station:TCOON:524:1,2016-07-08T17:18:00Z,29.8672,-93.9310,1.747,1111122 
TCOON,ioos:station:TCOON:524:1,2016-07-08T18:18:00Z,29.8672,-93.9310,1.748,1111122 
TCOON,ioos:station:TCOON:524:1,2016-07-08T19:18:00Z,29.8672,-93.9310,1.727,1111122 
TCOON,ioos:station:TCOON:524:1,2016-07-08T20:18:00Z,29.8672,-93.9310,1.721,1111122 
TCOON,ioos:station:TCOON:524:1,2016-07-08T21:18:00Z,29.8672,-93.9310,1.692,1111122 
TCOON,ioos:station:TCOON:524:1,2016-07-08T22:18:00Z,29.8672,-93.9310,1.695,1111122 
TCOON,ioos:station:TCOON:524:1,2016-07-08T23:18:00Z,29.8672,-93.9310,1.704,1111122 
TCOON,ioos:station:TCOON:524:1,2016-07-09T00:18:00Z,29.8672,-93.9310,1.692,1111122 
TCOON,ioos:station:TCOON:524:1,2016-07-09T01:18:00Z,29.8672,-93.9310,1.69,1111122 
TCOON,ioos:station:TCOON:524:1,2016-07-09T02:18:00Z,29.8672,-93.9310,1.725,1111122 
TCOON,ioos:station:TCOON:524:1,2016-07-09T03:18:00Z,29.8672,-93.9310,1.708,1111122 
TCOON,ioos:station:TCOON:524:1,2016-07-09T04:18:00Z,29.8672,-93.9310,1.713,1111122 
TCOON,ioos:station:TCOON:524:1,2016-07-09T05:18:00Z,29.8672,-93.9310,1.679,1111122 
TCOON,ioos:station:TCOON:524:1,2016-07-09T06:18:00Z,29.8672,-93.9310,1.64,1111122 
TCOON,ioos:station:TCOON:524:1,2016-07-09T07:18:00Z,29.8672,-93.9310,1.619,1111122 
TCOON,ioos:station:TCOON:524:1,2016-07-09T08:18:00Z,29.8672,-93.9310,1.583,1111122 
TCOON,ioos:station:TCOON:524:1,2016-07-09T09:18:00Z,29.8672,-93.9310,1.577,1111122 
TCOON,ioos:station:TCOON:524:1,2016-07-09T10:18:00Z,29.8672,-93.9310,1.607,1111122 
TCOON,ioos:station:TCOON:524:1,2016-07-09T11:18:00Z,29.8672,-93.9310,1.619,1111122 
TCOON,ioos:station:TCOON:524:1,2016-07-09T12:18:00Z,29.8672,-93.9310,1.676,1111122 
TCOON,ioos:station:TCOON:524:1,2016-07-09T13:18:00Z,29.8672,-93.9310,1.701,1111122 
TCOON,ioos:station:TCOON:524:1,2016-07-09T14:18:00Z,29.8672,-93.9310,1.745,1111122 
TCOON,ioos:station:TCOON:524:1,2016-07-09T15:18:00Z,29.8672,-93.9310,1.773,1111122 
TCOON,ioos:station:TCOON:524:1,2016-07-09T16:18:00Z,29.8672,-93.9310,1.776,1111122 
TCOON,ioos:station:TCOON:524:1,2016-07-09T17:18:00Z,29.8672,-93.9310,1.741,1111122 
TCOON,ioos:station:TCOON:524:1,2016-07-09T18:18:00Z,29.8672,-93.9310,1.736,1111122 
TCOON,ioos:station:TCOON:524:1,2016-07-09T19:18:00Z,29.8672,-93.9310,1.722,1111122 
TCOON,ioos:station:TCOON:524:1,2016-07-09T20:18:00Z,29.8672,-93.9310,1.674,1111122 
TCOON,ioos:station:TCOON:524:1,2016-07-09T21:18:00Z,29.8672,-93.9310,1.653,1111122 
TCOON,ioos:station:TCOON:524:1,2016-07-09T22:18:00Z,29.8672,-93.9310,1.658,1111122 
TCOON,ioos:station:TCOON:524:1,2016-07-09T23:18:00Z,29.8672,-93.9310,1.674,1111122 
TCOON,ioos:station:TCOON:524:1,2016-07-10T00:18:00Z,29.8672,-93.9310,1.685,1111122 
TCOON,ioos:station:TCOON:524:1,2016-07-10T01:18:00Z,29.8672,-93.9310,1.684,1111122 
TCOON,ioos:station:TCOON:524:1,2016-07-10T02:18:00Z,29.8672,-93.9310,1.666,1111122 
TCOON,ioos:station:TCOON:524:1,2016-07-10T03:18:00Z,29.8672,-93.9310,1.696,1111122 
TCOON,ioos:station:TCOON:524:1,2016-07-10T04:24:00Z,29.8672,-93.9310,1.699,1111122 
TCOON,ioos:station:TCOON:524:1,2016-07-10T05:18:00Z,29.8672,-93.9310,1.698,1111122 
TCOON,ioos:station:TCOON:524:1,2016-07-10T06:18:00Z,29.8672,-93.9310,1.641,1111122 
TCOON,ioos:station:TCOON:524:1,2016-07-10T07:18:00Z,29.8672,-93.9310,1.623,1111122 
TCOON,ioos:station:TCOON:524:1,2016-07-10T08:18:00Z,29.8672,-93.9310,1.601,1111122 
TCOON,ioos:station:TCOON:524:1,2016-07-10T09:18:00Z,29.8672,-93.9310,1.589,1111122 
TCOON,ioos:station:TCOON:524:1,2016-07-10T10:18:00Z,29.8672,-93.9310,1.576,1111122 
TCOON,ioos:station:TCOON:524:1,2016-07-10T11:18:00Z,29.8672,-93.9310,1.604,1111122 
TCOON,ioos:station:TCOON:524:1,2016-07-10T12:18:00Z,29.8672,-93.9310,1.619,1111122 
TCOON,ioos:station:TCOON:524:1,2016-07-10T13:18:00Z,29.8672,-93.9310,1.652,1111122 
TCOON,ioos:station:TCOON:524:1,2016-07-10T14:18:00Z,29.8672,-93.9310,1.706,1111122 
TCOON,ioos:station:TCOON:524:1,2016-07-10T15:18:00Z,29.8672,-93.9310,1.741,1111122 
TCOON,ioos:station:TCOON:524:1,2016-07-10T16:18:00Z,29.8672,-93.9310,1.767,1111122 
TCOON,ioos:station:TCOON:524:1,2016-07-10T17:18:00Z,29.8672,-93.9310,1.756,1111122 
TCOON,ioos:station:TCOON:524:1,2016-07-10T18:18:00Z,29.8672,-93.9310,1.735,1111122 
TCOON,ioos:station:TCOON:524:1,2016-07-10T19:18:00Z,29.8672,-93.9310,1.681,1111122 
TCOON,ioos:station:TCOON:524:1,2016-07-10T20:18:00Z,29.8672,-93.9310,1.644,1111122 
TCOON,ioos:station:TCOON:524:1,2016-07-10T21:18:00Z,29.8672,-93.9310,1.626,1111122 
TCOON,ioos:station:TCOON:524:1,2016-07-10T22:18:00Z,29.8672,-93.9310,1.627,1111122 
TCOON,ioos:station:TCOON:524:1,2016-07-10T23:18:00Z,29.8672,-93.9310,1.61,1111122 
TCOON,ioos:station:TCOON:524:1,2016-07-11T00:18:00Z,29.8672,-93.9310,1.618,1111122 
TCOON,ioos:station:TCOON:524:1,2016-07-11T01:18:00Z,29.8672,-93.9310,1.634,1111122 
TCOON,ioos:station:TCOON:524:1,2016-07-11T02:18:00Z,29.8672,-93.9310,1.633,1111122 
TCOON,ioos:station:TCOON:524:1,2016-07-11T03:18:00Z,29.8672,-93.9310,1.657,1111122 
TCOON,ioos:station:TCOON:524:1,2016-07-11T04:18:00Z,29.8672,-93.9310,1.66,1111122 
TCOON,ioos:station:TCOON:524:1,2016-07-11T05:18:00Z,29.8672,-93.9310,1.658,1111122 
TCOON,ioos:station:TCOON:524:1,2016-07-11T06:18:00Z,29.8672,-93.9310,1.695,1111122 
TCOON,ioos:station:TCOON:524:1,2016-07-11T07:18:00Z,29.8672,-93.9310,1.68,1111122 
TCOON,ioos:station:TCOON:524:1,2016-07-11T08:18:00Z,29.8672,-93.9310,1.653,1111122 
TCOON,ioos:station:TCOON:524:1,2016-07-11T09:18:00Z,29.8672,-93.9310,1.678,1111122 
TCOON,ioos:station:TCOON:524:1,2016-07-11T10:18:00Z,29.8672,-93.9310,1.684,1111122 
TCOON,ioos:station:TCOON:524:1,2016-07-11T11:18:00Z,29.8672,-93.9310,1.715,1111122 
TCOON,ioos:station:TCOON:524:1,2016-07-11T12:18:00Z,29.8672,-93.9310,1.754,1111122 
TCOON,ioos:station:TCOON:524:1,2016-07-11T13:18:00Z,29.8672,-93.9310,1.771,1111122 
TCOON,ioos:station:TCOON:524:1,2016-07-11T14:18:00Z,29.8672,-93.9310,1.785,1111122 
TCOON,ioos:station:TCOON:524:1,2016-07-11T15:18:00Z,29.8672,-93.9310,1.786,1111122 
TCOON,ioos:station:TCOON:524:1,2016-07-11T16:18:00Z,29.8672,-93.9310,1.8,1111122 
TCOON,ioos:station:TCOON:524:1,2016-07-11T17:18:00Z,29.8672,-93.9310,1.791,1111122 
TCOON,ioos:station:TCOON:524:1,2016-07-11T18:18:00Z,29.8672,-93.9310,1.763,1111122 
TCOON,ioos:station:TCOON:524:1,2016-07-11T19:18:00Z,29.8672,-93.9310,1.726,1111122 
TCOON,ioos:station:TCOON:524:1,2016-07-11T20:18:00Z,29.8672,-93.9310,1.671,1111122 
TCOON,ioos:station:TCOON:524:1,2016-07-11T21:18:00Z,29.8672,-93.9310,1.642,1111122 
TCOON,ioos:station:TCOON:524:1,2016-07-11T22:18:00Z,29.8672,-93.9310,1.628,1111122 
TCOON,ioos:station:TCOON:524:1,2016-07-11T23:18:00Z,29.8672,-93.9310,1.602,1111122 
TCOON,ioos:station:TCOON:524:1,2016-07-12T00:18:00Z,29.8672,-93.9310,1.65,1111122 
TCOON,ioos:station:TCOON:524:1,2016-07-12T01:18:00Z,29.8672,-93.9310,1.61,1111122 
TCOON,ioos:station:TCOON:524:1,2016-07-12T02:18:00Z,29.8672,-93.9310,1.608,1111122 
TCOON,ioos:station:TCOON:524:1,2016-07-12T03:18:00Z,29.8672,-93.9310,1.658,1111122 
TCOON,ioos:station:TCOON:524:1,2016-07-12T04:18:00Z,29.8672,-93.9310,1.693,1111122 
TCOON,ioos:station:TCOON:524:1,2016-07-12T05:18:00Z,29.8672,-93.9310,1.71,1111122 
TCOON,ioos:station:TCOON:524:1,2016-07-12T06:18:00Z,29.8672,-93.9310,1.664,1111122 
TCOON,ioos:station:TCOON:524:1,2016-07-12T07:18:00Z,29.8672,-93.9310,1.74,1111122 
TCOON,ioos:station:TCOON:524:1,2016-07-12T08:18:00Z,29.8672,-93.9310,1.777,1111122 
TCOON,ioos:station:TCOON:524:1,2016-07-12T09:18:00Z,29.8672,-93.9310,1.781,1111122 
TCOON,ioos:station:TCOON:524:1,2016-07-12T10:18:00Z,29.8672,-93.9310,1.789,1111122 
TCOON,ioos:station:TCOON:524:1,2016-07-12T11:18:00Z,29.8672,-93.9310,1.814,1111122 
TCOON,ioos:station:TCOON:524:1,2016-07-12T12:18:00Z,29.8672,-93.9310,1.787,1111122 
TCOON,ioos:station:TCOON:524:1,2016-07-12T13:18:00Z,29.8672,-93.9310,1.843,1111122 
TCOON,ioos:station:TCOON:524:1,2016-07-12T14:18:00Z,29.8672,-93.9310,1.853,1111122 
TCOON,ioos:station:TCOON:524:1,2016-07-12T15:18:00Z,29.8672,-93.9310,1.859,1111122 
TCOON,ioos:station:TCOON:524:1,2016-07-12T16:18:00Z,29.8672,-93.9310,1.876,1111122 
TCOON,ioos:station:TCOON:524:1,2016-07-12T17:18:00Z,29.8672,-93.9310,1.866,1111122 
TCOON,ioos:station:TCOON:524:1,2016-07-12T18:18:00Z,29.8672,-93.9310,1.83,1111122 
TCOON,ioos:station:TCOON:524:1,2016-07-12T19:18:00Z,29.8672,-93.9310,1.849,1111122 
TCOON,ioos:station:TCOON:524:1,2016-07-12T20:18:00Z,29.8672,-93.9310,1.794,1111122 
TCOON,ioos:station:TCOON:524:1,2016-07-12T21:18:00Z,29.8672,-93.9310,1.726,1111122 
TCOON,ioos:station:TCOON:524:1,2016-07-12T22:18:00Z,29.8672,-93.9310,1.678,1111122 
TCOON,ioos:station:TCOON:524:1,2016-07-12T23:18:00Z,29.8672,-93.9310,1.653,1111122 
TCOON,ioos:station:TCOON:524:1,2016-07-13T00:18:00Z,29.8672,-93.9310,1.638,1111122 